Location: *
(51.2667°S, 178.3000°E)
Time: 03:31:52
(UTC+00:00)

Daily predictions for brighter satellites

Satellite Brightness Start Highest point End
(mag) Time Altitude Azimuth Time Altitude Azimuth Time Altitude Azimuth
COSMOS 2487 2.4 07:30:58 10° NNW 07:34:26 75° ENE 07:37:57 10° SSE
Meteor 2-2 Rocket 4.4 07:31:23 10° SSW 07:37:12 87° ESE 07:43:04 10° NNE
CZ-2C R/B 4.4 07:34:10 10° NNW 07:38:52 33° W 07:43:37 10° SSW
SL-16 R/B 3.8 07:34:32 10° SSW 07:39:03 23° SE 07:43:34 10° E
Cosmos 2227 Rocket 3.9 07:44:35 10° NE 07:47:16 14° E 07:49:58 10° ESE
TELKOM 3 4.0 07:44:09 10° W 07:48:15 71° N 07:51:33 10° ENE
Cosmos 2219 Rocket 2.4 07:42:34 10° SSW 07:48:17 77° WNW 07:53:58 10° NNE
USA 186 3.4 07:46:28 10° SE 07:48:57 19° E 07:51:25 10° NE
Cosmos 724 4.4 07:43:02 10° SW 07:48:59 85° NW 07:54:48 10° NE
Cosmos 1606 3.8 07:46:01 10° S 07:49:25 28° ESE 07:52:46 10° NE
CZ-2D R/B 3.8 07:45:47 10° S 07:49:45 67° WSW 07:53:39 10° NNW
NOSS 3-1 (C) 4.2 07:41:26 10° NNW 07:49:54 57° NE 07:57:19 10° SE
Cosmos 1709 Rocket 4.3 07:50:10 10° NNE 07:56:13 49° E 08:02:15 10° SSE
CZ-2C R/B 3.2 07:52:58 10° SSE 07:58:27 80° ENE 08:04:09 10° NNW
USA 234 3.4 07:53:40 10° ENE 08:00:17 87° NNW 08:06:58 10° WSW
NOSS 0 Rocket 4.0 07:55:30 10° SSW 08:01:47 79° ESE 08:07:59 10° NE
Cosmos 389 Rocket 3.6 08:02:38 10° S 08:05:53 29° ESE 08:08:27 14° NE
Cosmos 1933 4.5 08:02:26 10° S 08:06:08 29° ESE 08:09:05 14° NE
Resurs 01 Rocket 3.7 08:06:26 10° ESE 08:07:00 10° E 08:07:34 10° E
Cosmos 2151 3.6 08:05:11 10° NNE 08:09:08 37° E 08:13:08 10° SSE
OBJECT-B 2.6 08:08:05 10° SE 08:10:10 15° E 08:11:03 14° ENE
Cosmos 1814 Rocket 4.4 08:07:41 10° SSW 08:12:52 63° WNW 08:18:03 10° N
YAOGAN 1 3.0 08:08:50 10° S 08:13:15 70° WSW 08:17:36 10° NNW
Cosmos 2181 Rocket 4.1 08:08:28 10° S 08:14:39 60° ESE 08:20:43 10° NNE
Intercosmos 24 Rocket 4.5 08:13:12 10° S 08:18:06 82° E 08:21:45 10° NNE
HJ-1C 3.6 08:16:09 10° S 08:19:33 77° WSW 08:22:56 10° NNW
Cosmos 2058 3.4 08:15:25 10° NNW 08:19:36 66° WSW 08:23:54 10° S
ARGOS 3.2 08:14:44 10° SSE 08:20:10 64° ENE 08:25:33 10° N
Cosmos 405 4.4 08:20:44 10° SSW 08:24:05 38° W 08:27:24 10° NNW
Cosmos 1782 4.3 08:21:40 10° SSE 08:25:02 23° ESE 08:27:04 16° ENE
Cosmos 2297 Rocket 2.9 08:21:36 10° NNE 08:26:30 31° ENE 08:31:28 10° SE
Timation 2 Rocket 4.4 08:20:15 10° N 08:26:40 45° ENE 08:32:57 10° SE
Cosmos 1892 4.4 08:24:28 10° NW 08:28:07 37° WSW 08:31:48 10° S
Cosmos 968 Rocket 3.9 08:27:44 10° N 08:32:28 39° ENE 08:37:17 10° SE
Cosmos 2221 4.5 08:29:23 10° SSW 08:33:10 29° W 08:36:56 10° NNW
H-2A R/B 2.2 08:29:18 10° SSE 08:34:23 76° WSW 08:39:33 10° NNW
Cosmos 1408 4.0 08:32:33 10° NNW 08:36:09 42° WSW 08:39:47 10° S
Cosmos 1900 4.4 08:31:18 10° SW 08:36:11 71° NW 08:39:45 18° NNE
Ariane Rocket 3.4 08:32:09 10° SSE 08:37:07 45° E 08:41:24 13° N
CSL-04 Rocket 3.8 08:31:51 10° SSE 08:37:23 82° WSW 08:42:57 10° NNW
Lacrosse 5 rocket 2.6 08:36:44 10° WSW 08:40:59 41° S 08:44:59 10° E
Okean-O 4.5 08:38:28 10° S 08:42:33 34° WSW 08:46:36 10° NW
SL-08 RB Rocket 3.7 08:38:31 10° SSE 08:43:13 81° ENE 08:47:47 10° NNW
Cosmos 1346 Rocket 3.9 08:40:08 10° NNW 08:44:04 48° WSW 08:48:02 10° S
COSMOS 2428 4.1 08:41:38 10° SW 08:46:48 35° WNW 08:51:56 10° N
Cosmos 2333 Rocket 4.0 08:43:15 10° SW 08:48:04 28° WNW 08:52:53 10° NNW
ATLAS CENTAUR R/B 4.0 08:45:44 10° W 08:49:45 26° SSW 08:53:53 10° SSE
Cosmos 1825 3.3 08:46:35 10° NNW 08:50:17 46° WSW 08:54:02 10° S
Cosmos 1486 Rocket 4.1 08:45:55 10° N 08:51:05 58° ENE 08:56:16 10° SSE
Meteor 2-3 Rocket 4.0 08:46:37 15° NNE 08:51:13 51° E 08:56:53 10° SSE
SJ-6B 2.7 08:48:34 10° SSE 08:52:24 65° ENE 08:55:08 19° N
Resurs 1-3 4.2 08:49:36 10° SSE 08:53:48 38° E 08:55:35 26° NE
Cosmos 2219 3.3 08:50:28 10° N 08:56:00 53° ENE 09:01:34 10° SE
ISS -3.6 08:54:11 10° W 08:57:35 61° NNW 08:58:41 38° NE
Cosmos 2237 Rocket 2.5 08:52:04 10° SW 08:57:47 67° WNW 09:01:45 20° NNE
SeaSat 1 3.7 08:56:12 10° SE 09:00:02 22° ENE 09:00:08 22° ENE
CZ-4 R/B 4.2 08:57:35 10° S 09:00:54 22° WSW 09:04:10 10° WNW
Cosmos 1503 Rocket 4.5 08:57:42 20° NNE 09:00:59 43° ENE 09:06:07 10° SE
Cosmos 2228 Rocket 4.3 08:57:59 10° S 09:01:53 28° ESE 09:03:23 23° E
Cosmos 1633 2.7 09:01:51 34° NNE 09:03:05 53° E 09:06:42 10° SSE
SAR-Lupe-2 3.5 09:02:15 33° NNE 09:03:46 81° ESE 09:07:28 10° SSW
JB-3 4.4 09:03:22 27° NNE 09:05:32 88° WNW 09:09:45 10° SSW
IRS-1A Rocket 4.3 09:00:30 10° SSE 09:06:31 73° ENE 09:12:02 12° N
USA 267 3.3 09:00:11 10° ESE 09:06:52 89° SSW 09:13:30 10° WNW
USA 229 DEB 4.0 08:59:41 10° NW 09:07:22 82° SW 09:14:38 10° SE
USA 229 4.0 08:59:47 10° NW 09:07:27 83° SW 09:14:45 10° SE
Cosmos 1980 4.3 09:03:00 10° SW 09:08:34 53° WNW 09:12:26 19° N
Cosmos 1867 3.6 09:03:38 10° SW 09:09:06 72° SE 09:11:58 28° NE
Okean 3 Rocket 3.6 09:07:49 16° N 09:11:23 89° W 09:16:03 10° S
Cosmos 1354 Rocket 4.4 09:09:30 25° NNE 09:12:14 46° ENE 09:17:23 10° SE
MOS 1 4.3 09:08:32 10° SSE 09:14:21 76° ENE 09:19:14 15° N
Cosmos 1766 Rocket 3.6 09:13:09 19° N 09:16:22 86° W 09:20:52 10° S
USA 186 3.5 09:16:37 10° S 09:19:41 34° WSW 09:22:42 10° NW
NOSS 3-1 (A) 4.1 09:13:48 10° NW 09:22:28 83° SW 09:29:55 10° SE
CENTAUR R/B 3.7 09:16:47 10° SW 09:22:35 34° SSE 09:27:34 10° E
SL-16 R/B 2.2 09:18:17 10° SSW 09:24:06 82° ESE 09:26:49 33° NE
MetOp-A 4.2 09:19:29 10° SSE 09:24:58 82° WSW 09:29:54 13° NNW
Cosmos 1743 Rocket 4.2 09:25:01 36° ENE 09:25:51 40° E 09:30:05 10° SSE
FREGAT/IRIS 3.8 09:23:27 10° S 09:25:56 35° WSW 09:26:57 25° WNW
Cosmos 1441 Rocket 3.1 09:26:26 35° NNW 09:27:57 87° W 09:31:50 10° SSE
Cosmos 1151 Rocket 3.6 09:24:00 10° SSW 09:28:20 54° W 09:30:40 25° NNW
Cosmos 1812 3.5 09:26:00 10° S 09:29:42 37° ESE 09:30:12 36° E
Cosmos 783 Rocket 4.5 09:24:27 10° SSW 09:29:48 89° E 09:32:02 36° NNE
Cosmos 2227 Rocket 2.1 09:24:52 11° NNW 09:30:19 73° ENE 09:36:03 10° SSE
Meteor 1-26 Rocket 4.4 09:25:43 10° SSW 09:31:11 64° W 09:34:21 25° N
Thor Agena Rocket 4.0 09:30:50 33° ENE 09:32:42 48° ESE 09:37:40 10° S
Cosmos 2184 Rocket 4.0 09:29:09 17° N 09:34:15 87° WSW 09:40:42 10° S
Cosmos 2263 Rocket 3.9 09:38:43 16° E 09:38:43 16° E 09:41:17 10° ESE
SPOT 3 Rocket 3.5 09:33:25 10° SSE 09:38:40 71° ENE 09:41:00 34° N
Meteor 1-4 Rocket 2.4 09:35:47 10° SSW 09:39:25 89° W 09:39:51 67° N
OBJECT-B 2.0 09:39:32 10° S 09:42:42 41° WSW 09:44:13 25° NW
USA 234 4.2 09:40:49 24° N 09:43:51 35° NW 09:49:49 10° WSW
Cosmos 1538 Rocket 4.3 09:39:04 10° SSW 09:44:15 57° ESE 09:45:59 38° ENE
Resurs 01 Rocket 1.6 09:39:45 10° SSE 09:44:19 74° ENE 09:45:38 45° N
MTI 3.8 09:48:58 77° WSW 09:48:58 77° WSW 09:52:04 10° SSW
ARIANE 5 R/B 2.9 09:46:16 10° SSE 09:50:32 45° E 09:50:43 45° ENE
Cosmos 1805 Rocket 4.3 09:51:44 37° E 09:51:50 37° E 09:56:01 10° SSE
Cosmos 1408 Rocket 3.9 09:52:34 31° NNW 09:54:33 63° WSW 09:58:59 10° S
Cosmos 2074 Rocket 4.4 09:49:28 15° NNW 09:54:44 63° WSW 10:01:04 10° S
USA 238 DEB 4.1 09:50:44 10° SW 09:57:45 58° SE 10:01:45 25° ENE
USA 238 4.1 09:50:50 10° SW 09:57:51 57° SE 10:01:51 25° ENE
Cosmos 2341 Rocket 4.2 09:58:34 39° NNE 10:00:46 59° E 10:07:05 10° SSE
Cosmos 1782 3.9 09:57:38 10° SSW 10:01:31 40° W 10:02:41 32° NW
Terra 3.4 09:58:37 10° SE 10:01:59 21° E 10:01:59 21° E
NOSS 3-2 (A) 3.8 09:56:03 10° SW 10:02:53 62° SE 10:05:48 31° ENE
EO 1 Del DPAF 3.6 10:03:13 49° ESE 10:03:15 49° ESE 10:07:00 10° S
Lacrosse 4 Rocket 4.2 10:01:13 10° S 10:03:30 14° SSE 10:05:46 10° SE
Spot 2 Rocket 3.7 10:00:00 10° SSE 10:05:00 51° E 10:05:39 48° NE
ATLAS 3B R/B 4.3 10:00:37 10° SW 10:07:15 34° SSE 10:13:40 10° ESE
Cosmos 2297 Rocket 2.8 10:04:43 10° NW 10:10:18 56° SW 10:15:56 10° SSE
Cosmos 2218 Rocket 4.4 10:08:52 39° NE 10:10:19 46° E 10:16:14 10° SSE
Cosmos 1603 4.0 10:08:50 10° SSW 10:14:37 62° SE 10:16:28 42° ENE
SPOT 5 3.6 10:14:02 10° SSE 10:19:02 41° E 10:19:23 41° ENE
Cosmos 1777 Rocket 4.0 10:19:19 56° NNE 10:20:16 69° ENE 10:25:37 10° SSE
Lacrosse 5 rocket 1.2 10:16:11 10° WSW 10:20:33 88° SSE 10:20:37 87° E
SL-8 Rocket 4.0 10:21:58 47° NNE 10:23:44 66° E 10:30:05 10° SSE
Cosmos 158 Rocket 4.5 10:18:33 10° SSW 10:23:50 53° ESE 10:25:12 42° ENE
SJ 16-02 2.7 10:32:47 28° ESE 10:32:47 28° ESE 10:35:43 10° SE
Cosmos 1707 Rocket 3.5 10:27:44 10° S 10:32:12 76° E 10:32:18 75° E
SPOT 1/Viking Rocket 3.5 10:27:50 10° SSE 10:33:09 82° ENE 10:34:08 60° N
Cosmos 405 Rocket 3.1 10:34:23 60° SE 10:34:23 60° SE 10:37:55 10° SSE
ISS -0.8 10:31:32 10° W 10:31:37 10° W 10:31:37 10° W
Cosmos 1184 Rocket 4.4 10:34:39 31° WSW 10:34:42 31° WSW 10:37:44 10° S
Cosmos 1437 Rocket 3.0 10:32:12 10° S 10:35:44 64° SSE 10:35:44 64° SSE
Resurs 1-4 Rocket 4.5 10:34:33 10° ESE 10:37:09 14° SE 10:39:44 10° SSE
SeaSat 1 2.6 10:32:59 10° SSE 10:38:00 73° SW 10:39:54 38° NW
MetOp-B 4.4 10:33:56 10° S 10:39:21 67° WSW 10:41:20 39° NW
Cosmos 2228 Rocket 4.0 10:36:01 10° SSW 10:40:12 38° W 10:40:52 36° WNW
Cosmos 1339 Rocket 4.5 10:34:37 10° SSW 10:41:02 79° W 10:42:50 49° N
IGS 5A 4.2 10:39:33 10° S 10:43:38 48° WSW 10:44:24 42° WNW
Cosmos 1862 4.1 10:44:38 44° W 10:45:03 46° WSW 10:49:03 10° S
Transit 2A Rocket 4.5 10:45:16 77° W 10:45:30 82° SW 10:50:09 10° SE
Landsat 7 4.3 10:41:32 10° S 10:46:19 58° WSW 10:47:35 43° WNW
Cosmos 1959 Rocket 4.5 10:45:32 52° N 10:47:15 79° E 10:53:42 10° SSE
Cosmos 2082 4.2 10:45:30 22° NW 10:49:08 58° SW 10:54:47 10° SSE
USA 267 3.9 10:43:12 10° ESE 10:49:40 57° S 10:56:06 10° W
Cosmos 1633 Rocket 3.4 10:50:42 54° ESE 10:50:42 54° ESE 10:54:40 10° SSE
Helios 1B rocket 4.3 10:49:47 21° ESE 10:50:17 21° ESE 10:53:28 10° S
Sich 1 3.0 10:51:59 79° W 10:52:02 79° W 10:56:31 10° S
Cosmos 923 Rocket 3.9 10:46:45 10° SSW 10:52:13 88° ESE 10:52:56 68° NNE
CZ-2D R/B 4.3 10:50:36 12° E 10:53:43 18° SE 10:57:24 10° S
Cosmos 1943 3.1 10:51:16 10° SSW 10:57:00 82° WNW 10:57:50 65° N
Cosmos 2366 rocket 3.9 11:00:46 53° NNW 11:02:22 85° W 11:08:39 10° S
Okean 1 4.1 10:58:45 10° S 11:02:22 47° SE 11:02:22 47° SE
NOSS 3-2 (C) 3.4 10:57:01 10° SW 11:03:52 83° SE 11:05:30 52° NE
ERS-1 Rocket 2.9 10:59:24 10° SSE 11:04:33 86° WSW 11:05:08 71° NNW
SL-16 R/B 3.9 11:03:27 10° SW 11:07:32 20° W 11:08:42 19° WNW
Cosmos 1242 Rocket 4.0 11:06:58 10° S 11:09:49 33° SE 11:09:49 33° SE
SL-08 R/B 4.4 11:10:01 59° NNE 11:11:10 76° E 11:17:23 10° SSE
Cosmos 1844 Rocket 4.4 11:11:39 19° E 11:11:39 19° E 11:15:03 10° ESE
Cosmos 1862 Rocket 3.6 11:08:11 10° SSW 11:12:22 77° SW 11:12:22 77° SW
CENTAUR R/B 2.0 11:07:50 10° SW 11:13:56 90° ESE 11:14:43 67° NE
Cosmos 2227 Rocket 4.0 11:10:00 10° WNW 11:14:55 29° SW 11:19:54 10° SSE
PSLV R/B 3.8 11:15:54 73° E 11:16:00 74° ESE 11:20:50 10° S
Resurs 01 Rocket 4.1 11:17:14 10° SSW 11:20:18 18° WSW 11:23:12 11° W
Cosmos 2263 Rocket 2.0 11:20:22 70° N 11:21:03 83° ENE 11:26:45 10° SSE
Meteor 1-18 Rocket 4.1 11:16:39 10° S 11:22:20 78° ESE 11:23:05 66° NE
Okean 1-7 3.7 11:21:02 10° S 11:24:59 46° ESE 11:24:59 46° ESE
CARTOSAT-1 4.4 11:21:19 10° S 11:25:30 43° WSW 11:25:55 42° W
ARIANE 5 R/B 4.4 11:23:09 10° S 11:26:46 25° WSW 11:28:16 21° W
ATLAS 2AS CENTAUR R/B 3.7 11:28:23 25° ENE 11:28:23 25° ENE 11:32:48 10° ESE
Cosmos 1727 Rocket 4.2 11:21:56 10° SSW 11:28:17 62° W 11:29:41 51° NW
Cosmos 2123 Rocket 4.4 11:22:53 10° S 11:29:08 57° ESE 11:30:43 45° ENE
Cosmos 1933 Rocket 4.0 11:30:38 55° ESE 11:30:38 55° ESE 11:34:40 10° SSE
Cosmos 1666 Rocket 4.1 11:30:59 51° WSW 11:31:04 51° WSW 11:35:30 10° S
Cosmos 990 Rocket 4.0 11:32:05 65° ENE 11:32:05 65° ENE 11:37:15 10° SSE
Cosmos 1680 Rocket 3.6 11:27:39 10° SSW 11:32:53 59° WNW 11:32:57 59° WNW
Meteor 1-25 Rocket 4.1 11:32:44 68° NNW 11:33:31 89° W 11:39:22 10° SSE
CZ-4 R/B 3.8 11:35:23 82° NNE 11:35:36 88° ESE 11:40:44 10° SSW
Terra 2.1 11:35:41 10° S 11:40:28 60° WSW 11:40:53 57° W
Cosmos 2112 Rocket 4.2 11:36:36 10° SSW 11:41:50 58° WNW 11:41:50 58° WNW
BREEZE-M DEB (TANK) 3.5 11:32:05 10° W 11:42:04 70° NW 11:42:04 70° NW
Intercosmos 25 4.3 11:37:25 10° S 11:43:18 51° ESE 11:43:37 50° E
Lacrosse 4 Rocket 2.5 11:39:09 10° SSW 11:43:24 41° SE 11:44:06 38° ESE
USA 238 DEB 3.9 11:42:02 10° SW 11:48:39 47° WNW 11:49:09 46° NW
USA 238 3.9 11:42:08 10° SW 11:48:46 47° WNW 11:49:16 47° NW
Gbstr 26 Del rocket 4.0 11:45:41 37° NW 11:48:46 73° NNE 11:54:59 10° ESE
Cosmos 1000 Rocket 4.4 11:44:17 10° SSW 11:50:33 71° W 11:51:37 59° NNW
GEOS 3 Rocket 3.7 11:45:52 10° SE 11:50:55 69° SW 11:52:09 50° WNW
Cosmos 1937 Rocket 3.6 11:52:33 64° ENE 11:52:37 64° ENE 11:57:58 10° SSE
NOSS 3-2 (A) 4.1 11:47:32 10° SW 11:53:11 37° WNW 11:53:11 37° WNW
